Regional Weather Roundup
Issued by NWS

Home | Current Version | Previous Version | Graphics & Text | Print | Product List | Glossary On
Versions: 1 2 3 4 5 6 7 8 9 10 11 12 13 14 15 16 17 18 19 20 21 22 23 24 25 26 27 28 29 30 31 32 33 34 35 36 37 38 39 40 41 42 43 44 45 46 47 48 49 50
000
ASUS43 KLMK 211102
RWRKY
KENTUCKY REGIONAL WEATHER ROUNDUP
NATIONAL WEATHER SERVICE LOUISVILLE KY
600 AM EST SUN DEC 21 2014

NOTE "FAIR" INDICATES FEW OR NO CLOUDS BELOW 12,000 FEET
WITH NO SIGNIFICANT WEATHER AND/OR OBSTRUCTIONS TO VISIBILITY.

KYZ001>023-026-027-061>063-070>075-211200-
WESTERN AND SOUTH CENTRAL KENTUCKY

CITY           SKY/WX    TMP DP  RH WIND       PRES   REMARKS
PADUCAH        CLEAR     25  23  92 CALM      30.24S FOG
HENDERSON      CLEAR     25  21  86 E5        30.26F WCI  19
OWENSBORO      CLEAR     25  24  96 CALM      30.27F FOG
HOPKINSVILLE   CLEAR     26  23  88 NE2       30.24R
BOWLING GREEN  CLEAR     24  20  84 CALM      30.26S FOG
GLASGOW        NOT AVBL
$$

KYZ024-025-028>034-038-045-046-053-211200-
NORTH CENTRAL KENTUCKY

CITY           SKY/WX    TMP DP  RH WIND       PRES   REMARKS
LOUISVILLE/SDF PTCLDY    26  23  88 CALM      30.29F FOG
LOUISVILLE/LOU CLEAR     24  20  84 CALM      30.30S
FORT KNOX      CLEAR     24  22  92 NE6       30.25F WCI  17
$$

KYZ035>037-039>044-047>052-055>060-089>105-211200-
NORTHEAST KENTUCKY

CITY           SKY/WX    TMP DP  RH WIND       PRES   REMARKS
LEXINGTON      CLEAR     22  20  92 NE7       30.28S FOG     WCI  13
COVINGTON      CLOUDY    31  22  69 CALM      30.30R
FRANKFORT      CLEAR     20  16  84 CALM      30.28S
$$

KYZ054-064>069-076>088-106>120-211200-
SOUTHEAST KENTUCKY

CITY           SKY/WX    TMP DP  RH WIND       PRES   REMARKS
JACKSON        CLEAR     27  23  85 NE5       30.25R WCI  22
LONDON         CLEAR     23  32 100 CALM      30.25R
SOMERSET       NOT AVBL
MIDDLESBORO    PTCLDY    23  22  96 CALM      30.26S
MONTICELLO     SUNNY     23  21  92 CALM      30.28S FOG
$$




USA.gov is the U.S. government's official web portal to all federal, state and local government web resources and services.